Regional Weather Roundup
Issued by NWS

Home | Current Version | Previous Version | Graphics & Text | Print | Product List | Glossary On
Versions: 1 2 3 4 5 6 7 8 9 10 11 12 13 14 15 16 17 18 19 20 21 22 23 24 25 26 27 28 29 30 31 32 33 34 35 36 37 38 39 40 41 42 43 44 45 46 47 48 49 50
000
ASUS43 KMKX 041510
RWRWI

WISCONSIN REGIONAL WEATHER ROUNDUP
NATIONAL WEATHER SERVICE MILWAUKEE/SULLIVAN WI
900 AM CST WED MAR 04 2015

NOTE: "FAIR" INDICATES FEW OR NO CLOUDS BELOW 12,000 FEET WITH NO
SIGNIFICANT WEATHER AND/OR OBSTRUCTIONS TO VISIBILITY.

WIZ001-002-006>008-014>016-023>028-041600-
NORTHWEST WISCONSIN

CITY           SKY/WX    TMP DP  RH WIND       PRES   REMARKS
SUPERIOR ARPT  PTSUNNY   -1 -10  66 W5        30.14R WCI -12
ASHLAND        SUNNY      0 -10  63 SW9       30.10R WCI -15
HAYWARD        CLOUDY    -1 -10  65 W7        30.08R WCI -14
SIREN          SUNNY      0 -10  63 W13       30.15R WCI -18
CUMBERLAND     SUNNY      0  -9  65 W8        30.11R WCI -15
RICE LAKE      SUNNY     -1  -9  67 W9        30.15R WCI -16
CHETEK         SUNNY      1 -10  62 MISG      30.15R
LADYSMITH      SUNNY      1  -8  67 W12       30.11R WCI -16
EAU CLAIRE     SUNNY      2 -10  57 W13G21    30.17R WCI -15
MENOMONIE      SUNNY      4  -8  58 W13       30.19R WCI -13
NEW RICHMOND   MOSUNNY    2  -8  63 W13       30.18R WCI -16
OSCEOLA        SUNNY      2  -8  64 W8        30.21R WCI -12
$$

WIZ003>005-009-010-017-018-041600-
NORTH CENTRAL WISCONSIN

CITY           SKY/WX    TMP DP  RH WIND       PRES   REMARKS
MANITOWISH WTR PTSUNNY   -3 -11  67 NW13G18   29.97R WCI -22
ARBOR VITAE    FLURRIES  -1 -10  64 W13G18    29.98R WCI -19
WOODRUFF       FLURRIES  -1 -10  64 W13G18    29.98R WCI -19
RHINELANDER    MOSUNNY   -1 -11  62 W13       29.99R WCI -19
EAGLE RIVER    SUNNY     -1 -13  56 NW13      29.96R WCI -19
LAND O LAKES   FLURRIES   1 -10  61 W7        29.95R WCI -12
PHILLIPS       SUNNY     -2 -13  60 NW9       30.02R WCI -18
TOMAHAWK       MOSUNNY    0 -11  60 W16       30.03R WCI -21
MEDFORD        MOSUNNY    0  -9  65 W14G22    30.04R WCI -19
MERRILL        SUNNY      2 -11  54 NW14G20   30.03R HAZE    WCI -16
$$

WIZ029-030-035-036-043>047-041600-
CENTRAL WISCONSIN

CITY           SKY/WX    TMP DP  RH WIND       PRES   REMARKS
WAUSAU         SUNNY      2  -8  63 W14       30.05R WCI -16
MOSINEE        SUNNY      1  -6  71 NW13G23   30.06R WCI -16
MARSHFIELD     SUNNY      2  -7  66 W15       30.08R WCI -17
STEVENS POINT  SUNNY      3  -9  58 NW10G22   30.08R WCI -13
WAUPACA        SUNNY      9  -4  54 W16G23    30.09R WCI  -8
WAUTOMA        SUNNY      8  -5  55 NW20      30.11R WCI -11
WISC RAPIDS    SUNNY      5  -7  57 NW16      30.11R WCI -14
CAMP DOUGLAS   MOSUNNY    7  -2  66 W13       30.13R WCI  -9
$$

WIZ011>013-019>022-031-037>040-048>050-041600-
NORTHEAST WISCONSIN

CITY           SKY/WX    TMP DP  RH WIND       PRES   REMARKS
ANTIGO         SUNNY      0 -10  63 NW20G25   29.99R WCI -22
SHAWANO        SUNNY      9  -7  47 W15G22    30.06R WCI  -8
OCONTO         SUNNY      9  -4  56 W15G22    30.05R WCI  -8
STURGEON BAY   SUNNY      9  -6  52 W15       30.04R WCI  -8
GREEN BAY      SUNNY      8  -5  55 W16G24    30.06R WCI -10
MANITOWOC      SUNNY     12   0  58 NW16G24   30.05R WCI  -5
APPLETON       MOSUNNY    7  -6  56 NW20      30.05R WCI -13
CLINTONVILLE   SUNNY      9  -6  52 W16G23    30.07R WCI  -9
OSHKOSH        SUNNY      8  -4  58 W20G26    30.07R WCI -11
$$

WIZ032>034-041-042-053>061-041600-
SOUTHWEST WISCONSIN

CITY           SKY/WX    TMP DP  RH WIND       PRES   REMARKS
LA CROSSE      SUNNY      8  -4  58 NW14      30.20R WCI  -8
SPARTA         SUNNY      8  -3  60 W10G16    30.16S WCI  -6
VIROQUA        SUNNY      5  -5  63 NW15      30.12R WCI -13
BOSCOBEL       SUNNY     10  -5  50 NW14G20   30.19R WCI  -6
PRAIRIE DU CHI SUNNY      8  -5  54 NW12G21   30.21R WCI  -7
PLATTEVILLE    SUNNY      9  -1  66 W15       30.14R WCI  -8
$$

WIZ056-057-062-063-064-067-068-041600-
SOUTH CENTRAL WISCONSIN

CITY           SKY/WX    TMP DP  RH WIND       PRES   REMARKS
REEDSBURG      SUNNY      8  -2  61 NW12      30.12S WCI  -7
BARABOO/DELLS  SUNNY      8  -4  56 W13       30.11R WCI  -8
LONE ROCK      SUNNY     10  -2  58 W15       30.16R WCI  -7
MINERAL POINT  SUNNY     10   0  61 W13G20    30.10F WCI  -5
MADISON        MOSUNNY   12  -4  48 NW16G24   30.11R WCI  -5
MIDDLETON      SUNNY     13   1  58 NW13G18   30.11R WCI  -1
WATERTOWN      MOSUNNY   11   0  59 NW16G22   30.09S WCI  -5
MONROE         MOSUNNY   12   3  67 NW15G23   30.10R WCI  -4
JANESVILLE     SUNNY     14   3  62 NW15      30.10R WCI  -1
$$

WIZ051-052-058>065-066-070>072-041600-
SOUTHEAST WISCONSIN

CITY           SKY/WX    TMP DP  RH WIND       PRES   REMARKS
MILWAUKEE      MOSUNNY   15  -1  49 NW15G23   30.07R WCI   0
WAUKESHA       MOSUNNY   10  -2  56 NW12G23   30.07R WCI  -4
MILWAUKEE/TIMM MOSUNNY   12   0  57 W14       30.07R WCI  -3
RACINE         MOSUNNY   15   0  51 NW10G21   30.07R WCI   2
BURLINGTON     SUNNY     11  -1  56 NW18      30.09R WCI  -7
KENOSHA        MOSUNNY   15   6  67 NW12      30.06R WCI   2
FOND DU LAC    SUNNY     10  -2  58 W18G25    30.08R WCI  -8
SHEBOYGAN      SUNNY     10  -3  55 NW15      30.06R WCI  -7
WEST BEND      SUNNY     12   0  57 NW13G21   30.05S WCI  -3
JUNEAU         SUNNY      9  -2  60 W14G20    30.09R WCI  -7
$$

LSZ147-162-041600-
LAKE SUPERIOR

STATION/POSITION TIME  TEMP    WIND        PRES    WAVE
                       AIR SEA DIR/SP/G            HT/PER
                 (UTC) (F)     (DEG/KT/KT) (MB)    (FT/S)
DEVILS ISLAND    1500    1     290/ 21/ 25 1020.4R
PORT WING        1400    1     270/ 14/ 21 1019.0R
SAXON HARBOR     1400   -1     230/  7/ 12 1018.6
$$

LMZ867-665-643>646-041600-
LAKE MICHIGAN

STATION/POSITION TIME  TEMP    WIND        PRES    WAVE
                       AIR SEA DIR/SP/G            HT/PER
                 (UTC) (F)     (DEG/KT/KT) (MB)    (FT/S)
NORTHPORT PIER   1406   10     280/  8/ 16 1015.6R
SISTER BAY       1413   14     310/ 12/ 13   N/A
KEWAUNEE LAKESHO 1400   11     290/  8/ 11 1015.5R
SHEBOYGAN LAKESH 1500   11     290/ 18/ 23 1019.4R
PORT WASHINGTON  1400   12     300/  8/ 13 1018.6
MILWAUKEE LAKESH 1400   14     300/ 13/ 17   N/A
KENOSHA   LAKESH 1500   15     320/ 14/ 17 1018.3R
$$

TC  - TEMPERATURE IN CELSIUS
VSB - VISIBILITY IN STATUTE MILES
WCI - WIND CHILL INDEX
HX  - HEAT INDEX



USA.gov is the U.S. government's official web portal to all federal, state and local government web resources and services.